Location: Cuiry
(49.3858°N, 3.7708°E)
Time: 17:30:08
(UTC+00:00)

CARTOSAT-1 - Visible Passes

Search period start: 11 April 2026 00:00
Search period end: 21 April 2026 00:00
Orbit: 595 x 596 km, 97.5° (Epoch: 11 April)

Date Brightness Start Highest point End Pass type
(mag) Time Alt. Az. Time Alt. Az. Time Alt. Az.
14 Apr 5.8 19:08:54 10° SSW 19:12:30 27° W 19:16:08 10° NW visible
15 Apr 6.2 19:18:52 10° SW 19:22:10 22° W 19:25:30 10° NW visible
16 Apr 6.3 19:28:56 10° SW 19:31:52 18° W 19:34:48 10° NW visible
17 Apr 6.5 19:39:10 10° WSW 19:41:34 15° W 19:43:57 10° NW visible
18 Apr 6.7 19:49:42 10° WSW 19:51:16 12° W 19:52:50 10° WNW visible
